Weather History for 71860 - April, 2014

Change the Weather History Date:

Thursday, April 3, 2014

  Actual Average Record
Temperature  
Mean Temperature 26 °F -  
Max Temperature 30 °F 47 °F - ()
Min Temperature 21 °F 25 °F - ()
Degree Days  
Heating Degree Days 40    
Moisture  
Dew Point 25 °F    
Average Humidity 95    
Maximum Humidity 100    
Minimum Humidity 86    
Precipitation  
Precipitation 0.00 in - - ()
Sea Level Pressure  
Sea Level Pressure 30.05 in    
Wind  
Wind Speed 8 mph ()    
Max Wind Speed 18 mph    
Max Gust Speed 21 mph    
Visibility 3.0 miles    
Events Fog    
T = Trace of Precipitation, MM = Missing Value Source: Averaged Metar Reports

Daily Weather History Graph

Daily Weather History Graph

Search for Another Location

Airport or City:

Trip Planner

Search our weather history database for the weather conditions in past years. The results will help you decide how hot, cold, wet, or windy it might be!

Date:

Astronomy

Apr. 03, 2014 Rise Set
Actual Time 7:08 AM MDT 8:13 PM MDT
Civil Twilight 6:34 AM MDT 8:47 PM MDT
Nautical Twilight 5:53 AM MDT 9:28 PM MDT
Astronomical Twilight 5:10 AM MDT 10:12 PM MDT
Moon 9:18 AM MDT (4/3) 12:00 AM MDT (4/3)
Length of Visible Light 14h 13m
Length of Day
13h 05m
Waxing Crescent, 18% of the Moon is Illuminated
Apr 3
Waxing Crescent
Apr 7
First Quarter
Apr 15
Full
Apr 22
Last Quarter
Apr 29
New

Hourly Weather History & Observations

Time (MDT) Temp. Windchill Dew Point Humidity Pressure Visibility Wind Dir Wind Speed Gust Speed Precip Events Conditions
6:52 AM 21.2 °F 13.6 °F 21.2 °F 100% 30.13 in 3.0 mi SE 5.8 mph - N/A   Overcast
7:00 AM 21.2 °F 12.6 °F 19.4 °F 93% 30.14 in 3.0 mi SE 6.9 mph - N/A   Overcast
7:49 AM 21.2 °F 10.1 °F 21.2 °F 100% 30.13 in 1.2 mi SE 10.4 mph - N/A   Overcast
8:00 AM 21.2 °F 10.9 °F 21.2 °F 100% 30.14 in 1.0 mi SE 9.2 mph - N/A   Overcast
8:27 AM - - - N/A% - 0.8 mi SE 8.1 mph - N/A   Mist
9:00 AM 24.8 °F 16.1 °F 23.0 °F 93% 30.14 in 0.5 mi SE 8.1 mph - N/A Fog Light Freezing Fog
9:26 AM - - - N/A% - 0.2 mi SE 6.9 mph - N/A Fog Light Freezing Fog
10:00 AM 24.8 °F 15.3 °F 21.2 °F 86% 30.13 in 0.4 mi SE 9.2 mph - N/A Fog Light Freezing Fog
10:09 AM - - - N/A% - 1.2 mi SE 9.2 mph - N/A   Mist
11:00 AM 24.8 °F 16.9 °F 23.0 °F 93% 30.14 in 1.0 mi SE 6.9 mph - N/A   Mist
11:34 AM - - - N/A% - 1.5 mi SE 9.2 mph - N/A   Mist
12:00 PM 26.6 °F 17.5 °F 23.0 °F 86% 30.13 in 3.0 mi SE 9.2 mph - N/A   Overcast
1:00 PM 28.4 °F 18.5 °F 24.8 °F 86% 30.11 in 3.0 mi SE 11.5 mph - N/A   Overcast
2:00 PM 28.4 °F 19.1 °F 26.6 °F 93% 30.09 in 3.0 mi South 10.4 mph - N/A   Overcast
2:57 PM 26.6 °F 15.7 °F 24.8 °F 93% 30.06 in 5.0 mi SSE 12.7 mph - N/A   Overcast
3:00 PM 26.6 °F 15.7 °F 24.8 °F 93% 30.05 in 5.0 mi SSE 12.7 mph - N/A   Overcast
3:11 PM 26.6 °F 16.2 °F 24.8 °F 93% 30.05 in 6.0 mi SSE 11.5 mph - N/A   Overcast
4:00 PM 28.4 °F 18.0 °F 26.6 °F 93% 30.03 in 7.0 mi SSE 12.7 mph 20.7 mph N/A   Overcast
4:31 PM 28.4 °F 17.5 °F 26.6 °F 93% 30.02 in 5.0 mi SSE 13.8 mph - N/A   Overcast
5:00 PM 28.4 °F 18.0 °F 26.6 °F 93% 30.01 in 7.0 mi SE 12.7 mph 19.6 mph N/A   Overcast
5:57 PM 28.4 °F 15.8 °F 28.4 °F 100% 29.99 in 5.0 mi SSE 18.4 mph - N/A   Overcast
6:00 PM 28.4 °F 17.5 °F 28.4 °F 100% 29.99 in 5.0 mi SSE 13.8 mph 20.7 mph N/A   Overcast
7:00 PM 30.2 °F 20.2 °F 28.4 °F 93% 29.99 in 5.0 mi SSE 12.7 mph - N/A   Overcast
8:00 PM 30.2 °F 21.3 °F 30.2 °F 100% 29.97 in 5.0 mi SSE 10.4 mph - N/A   Overcast
10:00 PM 30.2 °F 21.3 °F 30.2 °F 100% 29.92 in 1.8 mi SSE 10.4 mph - N/A   Overcast
10:14 PM 30.2 °F 21.9 °F 30.2 °F 100% 29.91 in 1.5 mi SE 9.2 mph - N/A   Overcast
11:00 PM 30.2 °F 22.6 °F 30.2 °F 100% 29.88 in 1.0 mi SSE 8.1 mph - N/A   Overcast